TimeEDT,TemperatureF,Dew PointF,Humidity,Sea Level PressureIn,VisibilityMPH,Wind Direction,Wind SpeedMPH,Gust SpeedMPH,PrecipitationIn,Events,Conditions,WindDirDegrees,DateUTC
12:54 AM,68.0,66.0,93,30.09,5.0,Calm,Calm,-,N/A,,Clear,0,2013-06-23 04:54:00
1:54 AM,66.9,66.0,97,30.08,3.0,SE,3.5,-,N/A,,Clear,140,2013-06-23 05:54:00
2:54 AM,68.0,66.0,93,30.07,3.0,Calm,Calm,-,N/A,,Clear,0,2013-06-23 06:54:00
3:54 AM,66.0,64.9,96,30.07,2.5,NE,3.5,-,N/A,,Clear,40,2013-06-23 07:54:00
4:06 AM,66.2,64.4,94,30.10,3.0,NE,4.6,-,N/A,,Clear,40,2013-06-23 08:06:00
4:36 AM,66.2,64.4,94,30.10,2.5,NE,3.5,-,N/A,,Clear,50,2013-06-23 08:36:00
4:54 AM,64.9,64.0,97,30.08,2.0,Calm,Calm,-,N/A,,Clear,0,2013-06-23 08:54:00
5:09 AM,66.2,64.4,94,30.12,3.0,Calm,Calm,-,N/A,,Clear,0,2013-06-23 09:09:00
5:24 AM,64.4,64.4,100,30.13,2.0,Calm,Calm,-,N/A,,Clear,0,2013-06-23 09:24:00
5:33 AM,64.4,64.4,100,30.13,1.8,SE,3.5,-,N/A,,Clear,130,2013-06-23 09:33:00
5:43 AM,66.2,64.4,94,30.13,2.5,Calm,Calm,-,N/A,,Clear,0,2013-06-23 09:43:00
5:54 AM,66.0,64.9,96,30.11,2.5,Calm,Calm,-,N/A,,Clear,0,2013-06-23 09:54:00
6:12 AM,64.4,64.4,100,30.14,1.5,Calm,Calm,-,N/A,,Clear,0,2013-06-23 10:12:00
6:54 AM,66.9,66.0,97,30.12,1.8,Calm,Calm,-,N/A,,Clear,0,2013-06-23 10:54:00
7:11 AM,68.0,66.2,94,30.15,2.0,Calm,Calm,-,N/A,,Partly Cloudy,0,2013-06-23 11:11:00
7:23 AM,69.8,66.2,88,30.15,3.0,Calm,Calm,-,N/A,,Clear,0,2013-06-23 11:23:00
7:54 AM,72.0,68.0,87,30.12,3.0,Calm,Calm,-,N/A,,Clear,0,2013-06-23 11:54:00
8:54 AM,77.0,69.1,76,30.13,6.0,SSW,4.6,-,N/A,,Haze,200,2013-06-23 12:54:00
9:54 AM,81.0,68.0,65,30.13,9.0,SW,5.8,-,N/A,,Clear,220,2013-06-23 13:54:00
10:54 AM,82.9,68.0,60,30.13,10.0,SW,8.1,-,N/A,,Clear,230,2013-06-23 14:54:00
11:54 AM,82.0,68.0,62,30.12,10.0,SW,9.2,-,N/A,,Mostly Cloudy,230,2013-06-23 15:54:00
12:54 PM,84.9,66.0,53,30.09,10.0,SW,9.2,-,N/A,,Scattered Clouds,220,2013-06-23 16:54:00
1:54 PM,86.0,64.9,49,30.09,10.0,South,11.5,-,N/A,,Clear,190,2013-06-23 17:54:00
2:54 PM,84.9,64.0,49,30.08,10.0,SSW,13.8,-,N/A,,Scattered Clouds,200,2013-06-23 18:54:00
3:54 PM,87.1,64.9,48,30.06,10.0,SSW,11.5,-,N/A,,Scattered Clouds,200,2013-06-23 19:54:00
4:54 PM,86.0,62.1,44,30.05,10.0,SSW,11.5,-,N/A,,Partly Cloudy,210,2013-06-23 20:54:00
5:54 PM,86.0,60.1,41,30.04,10.0,SSW,11.5,-,N/A,,Clear,210,2013-06-23 21:54:00
6:51 PM,82.4,64.4,54,30.08,10.0,West,11.5,-,N/A,,Scattered Clouds,260,2013-06-23 22:51:00
6:54 PM,82.9,64.9,54,30.05,10.0,West,13.8,-,N/A,,Scattered Clouds,260,2013-06-23 22:54:00
7:54 PM,78.1,61.0,56,30.06,10.0,West,8.1,-,N/A,,Clear,270,2013-06-23 23:54:00
8:54 PM,75.9,62.1,62,30.06,10.0,West,6.9,-,N/A,,Clear,270,2013-06-24 00:54:00
9:54 PM,73.0,63.0,71,30.09,10.0,West,3.5,-,N/A,,Clear,270,2013-06-24 01:54:00
10:54 PM,70.0,64.0,81,30.11,10.0,Calm,Calm,-,N/A,,Clear,0,2013-06-24 02:54:00
11:54 PM,66.9,64.9,93,30.11,8.0,SE,4.6,-,N/A,,Clear,140,2013-06-24 03:54:00